Flag for Canada Weather past 2 weeks in Rankin Inlet, Nunavut, Canada

Now
19 °F

Light snow. Mostly cloudy.


Feels Like: 3 °F
Forecast: N/A
Wind: 21 mph from Northwest

Location: Rankin Inlet

Current Time: May 4, 2015 at 5:22:06 PM

Latest Report: May 4, 2015 at 4:00 PM


Visibility: 15 mi

Pressure: 29.62 "Hg

Humidity: 79%

Dew point: 14 °F

Location of Rankin InletLocation

Historic Weather in Rankin Inlet — Graph

°F

Rankin Inlet temperature yesterday

Maximum temperature yesterday: 21 °F (at 1:00 PM)
Minimum temperature yesterday: 14 °F (at 10:00 PM)
Average temperature yesterday: 18 °F

Past Weeks' High & Low Weather Summary

 TemperatureHumidityPressure
High37 °F (May 1, 4:00 PM)100% (Apr 24, 5:00 PM)30.40 "Hg (Apr 24, 5:00 PM)
Low-11 °F (Apr 21, 5:00 AM)70% (Apr 20, 8:00 AM)29.54 "Hg (May 1, 4:00 AM)
Average16 °F85%30.10 "Hg
* Reported Apr 19 3:00 PM — May 4 3:00 PM, Rankin Inlet, Weather by CustomWeather, © 2015

Note: Actual official high and low records may vary slightly from our data, if they occured in-between our weather recording intervals... More about our weather records

Advertising

Rankin Inlet weather history for previous 24 hours

 ConditionsComfort  
Time TempWeatherWind HumidityBarometerVisibility
3:00 PM
Mon, May 4
18 °FLight snow. Mostly cloudy.18 mph79%29.62 "Hg15 mi
2:00 PM18 °FLight snow. Partly sunny.18 mph73%29.62 "Hg15 mi
1:00 PM18 °FLight snow. Partly sunny.16 mph79%29.60 "Hg10 mi
12:00 PM18 °FLight snow. Mostly cloudy.12 mph79%29.60 "Hg10 mi
11:47 AM16 °FLight snow. Mostly cloudy.10 mph79%29.60 "Hg10 mi
11:00 AM16 °FLight snow. Mostly cloudy.7 mph79%29.59 "Hg10 mi
10:00 AM14 °FLight snow. Mostly cloudy.7 mph79%29.59 "Hg10 mi
9:00 AM12 °FLight snow. Overcast.8 mph79%29.60 "Hg10 mi
8:00 AM9 °FLight snow. Mostly cloudy.9 mph78%29.60 "Hg10 mi
7:00 AM7 °FPartly sunny.8 mph78%29.61 "Hg10 mi
6:00 AM5 °FPassing clouds.8 mph85%29.63 "Hg10 mi
5:00 AM5 °FPassing clouds.12 mph85%29.63 "Hg10 mi
4:00 AM7 °FPassing clouds.10 mph78%29.64 "Hg10 mi
3:00 AM9 °FPassing clouds.12 mph78%29.65 "Hg10 mi
2:00 AM10 °FLight snow. Passing clouds.13 mph79%29.66 "Hg10 mi
1:00 AM12 °FLight snow. Passing clouds.13 mph79%29.67 "Hg6 mi
12:00 AM14 °FLight snow. Overcast.20 mph73%29.69 "Hg6 mi
11:00 PM
Sun, May 3
14 °FLight snow. Overcast.20 mph73%29.71 "Hg6 mi
10:00 PM14 °FLight snow. Overcast.17 mph79%29.72 "Hg10 mi
9:00 PM16 °FLight snow. Overcast.18 mph73%29.72 "Hg10 mi
8:00 PM16 °FLight snow. Overcast.21 mph79%29.74 "Hg10 mi
7:00 PM18 °FLight snow. Overcast.18 mph73%29.74 "Hg10 mi
6:00 PM18 °FLight snow. Partly sunny.22 mph73%29.74 "Hg15 mi
5:00 PM18 °FLight snow. Partly sunny.21 mph79%29.74 "Hg15 mi
Weather by CustomWeather, © 2015

See weather overviewHow to use our weather pages